Regional Weather Roundup
Issued by NWS

Home | Current Version | Previous Version | Text Only | Print | Product List | Glossary On
Versions: 1 2 3 4 5 6 7 8 9 10 11 12 13 14 15 16 17 18 19 20 21 22 23 24 25 26 27
000
ASUS45 KCYS 300110
RWRWY

WYOMING REGIONAL WEATHER ROUNDUP
NATIONAL WEATHER SERVICE CHEYENNE WY
700 PM MDT SUN MAY 29 2016

NOTE:  "FAIR" INDICATES FEW OR NO CLOUDS BELOW 12,000 FEET
WITH NO SIGNIFICANT WEATHER AND/OR OBSTRUCTIONS TO VISIBILITY.

WYZ001-300200-
YELLOWSTONE NATIONAL PARK

CITY           SKY/WX    TMP DP  RH WIND       PRES   REMARKS
LK YELLOWSTONE   N/A     55  26  32 VRB6      30.18R
W YELLOWSTONE  NOT AVBL

$$
WYZ002>013-054>058-071-098>099-300200-
NORTHERN WYOMING

CITY           SKY/WX    TMP DP  RH WIND       PRES   REMARKS
JACKSON        MOSUNNY   61  37  41 SW9       30.10F
CODY           FAIR      72  36  26 SW10      29.97S
GREYBULL       FAIR      78  29  16 S6        29.91S
WORLAND        FAIR      77  27  15 SE7       29.92F
SHERIDAN       FAIR      74  43  32 E8        29.94F
BUFFALO        FAIR      72  39  30 E7        30.00S
GILLETTE       FAIR      73  36  25 CALM      29.98F
HULETT         FAIR      70  43  37 NE5       30.01S
NEWCASTLE      FAIR      77  27  15 W7        29.99F

$$
WYZ014>020-022>026-101>103-300200-
CENTRAL WYOMING

CITY           SKY/WX    TMP DP  RH WIND       PRES   REMARKS
BIG PINEY      PTSUNNY   55  38  52 N21G31    30.15R
PINEDALE       TSTM      52  41  66 CALM      30.19R
DUBOIS         LGT RAIN  55  32  41 W20       30.12R
LANDER         FAIR      64  38  38 S20       30.01F
RIVERTON       FAIR      72  33  24 S8        30.02S
CASPER         FAIR      67  41  38 N5        30.01F
DOUGLAS          N/A    N/A N/A N/A MISG      30.02F

$$
WYZ021-027>030-104>119-300200-
SOUTHERN WYOMING

CITY           SKY/WX    TMP DP  RH WIND       PRES   REMARKS
EVANSTON       FAIR      60  40  47 S12       30.15S
KEMMERER       LGT RAIN  52  43  71 S10       30.17S
FORT BRIDGER   CLEAR     61  45  55 S10       30.18F
ROCK SPRINGS   FAIR      60  35  39 SW13      30.14F
DIXON          CLOUDY    56  45  66 E9        30.23S
RAWLINS        FAIR      63  30  28 W14       30.15R
SARATOGA       MOCLDY    54  37  54 SW30G41   30.20R
LARAMIE        PTSUNNY   52  45  77 SE6       30.21R
CHEYENNE       FAIR      59  40  49 W15G25    30.14S
TORRINGTON     FAIR      70  45  40 SW8       29.99S
PINE BLUFFS    FAIR      63  46  55 NE5       30.09R

$$




USA.gov is the U.S. government's official web portal to all federal, state and local government web resources and services.